Home   Weather   Pacoima   Past weeks
Flag for USA

Past Weather in Pacoima, California, USA — Yesterday and Last 2 Weeks

Now
55 °F

Fog.


Feels Like: 55 °F
Forecast: 62 / 50 °F
Wind: No wind

Location: Van Nuys Airport

Current Time: Dec 14, 2019 at 5:09:17 am

Latest Report: Dec 14, 2019 at 4:16 am


Visibility: 2 mi

Pressure: 29.97 "Hg

Humidity: 93%

Dew Point: 53 °F

Location of PacoimaLocation

Past Weather in Pacoima — Graph

°F

Pacoima Temperature Yesterday

Maximum temperature yesterday: 72 °F (at 12:51 pm)
Minimum temperature yesterday: 50 °F (at 5:51 am)
Average temperature yesterday: 59 °F

High & Low Weather Summary for the Past Weeks

 TemperatureHumidityPressure
High75 °F (Dec 12, 2:51 pm)93% (Nov 29, 5:44 am)30.24 "Hg (Nov 29, 5:44 am)
Low37 °F (Nov 29, 5:08 am)23% (Dec 2, 1:51 pm)29.67 "Hg (Nov 29, 3:51 am)
Average56 °F72%30.06 "Hg
* Reported Nov 29 3:51 am — Dec 14 3:51 am, Pacoima. Weather by CustomWeather, © 2019

Note: Actual official high and low records may vary slightly from our data, if they occured in-between our weather recording intervals... More about our weather records

Pacoima Weather History for the Previous 24 Hours

Scroll right to see more
 ConditionsComfort  
Time TempWeatherWind HumidityBarometerVisibility
3:51 am
Sat, Dec 14
56 °FFog.No wind93%29.96 "Hg1 mi
3:33 am56 °FFog.No wind93%29.98 "Hg2 mi
2:51 am56 °FFog.No wind93%29.97 "Hg1 mi
1:51 am56 °FFog.5 mph93%29.98 "Hg1 mi
1:22 am56 °FFog.No wind93%29.99 "Hg1 mi
1:03 am56 °FFog.No wind93%30.00 "Hg1 mi
12:30 am56 °FFog.3 mph93%30.00 "Hg1 mi
12:08 am56 °FFog.No wind93%30.01 "Hg1 mi
11:40 pm
Fri, Dec 13
55 °FFog.5 mph93%30.01 "Hg1 mi
11:12 pm55 °FFog.No wind93%30.01 "Hg1 mi
10:59 pm55 °FFog.3 mph90%30.02 "Hg2 mi
9:51 pm57 °FFog.3 mph87%30.01 "Hg4 mi
8:51 pm58 °FFog.No wind87%30.01 "Hg4 mi
7:51 pm58 °FFog.No wind87%30.01 "Hg4 mi
6:51 pm60 °FPassing clouds.3 mph80%30.01 "Hg5 mi
5:51 pm63 °FClear.3 mph70%30.01 "Hg7 mi
4:51 pm65 °FPassing clouds.5 mph63%30.01 "Hg8 mi
3:51 pm68 °FSunny.8 mph57%30.01 "Hg9 mi
2:51 pm70 °FSunny.7 mph55%30.02 "Hg10 mi
1:51 pm71 °FSunny.8 mph53%30.02 "Hg9 mi
12:51 pm72 °FSunny.5 mph48%30.04 "Hg10 mi
11:51 am71 °FSunny.5 mph49%30.07 "Hg10 mi
10:51 am68 °FSunny.5 mph51%30.10 "Hg10 mi
9:51 am65 °FSunny.3 mph59%30.13 "Hg10 mi
8:51 am59 °FSunny.No wind75%30.13 "Hg10 mi
7:51 am53 °FSunny.No wind83%30.13 "Hg10 mi
6:51 am50 °FSunny.No wind86%30.13 "Hg10 mi
5:51 am50 °FClear.No wind86%30.12 "Hg10 mi
Weather by CustomWeather, © 2019

See weather overview

Advertising